Regional Weather Roundup
Issued by NWS Green Bay, WI

Home | Current Version | Previous Version | Text Only | Print | Product List | Glossary On
Versions: 1 2 3 4 5 6 7 8 9 10 11 12 13 14 15 16 17 18 19 20 21 22 23 24 25 26 27 28 29 30 31 32 33 34 35 36 37 38 39 40 41 42 43 44 45 46 47 48 49 50
000
ASUS43 KGRB 251710
RWRGRB

NORTH-CENTRAL AND NORTHEAST WISCONSIN REGIONAL WEATHER ROUNDUP
NATIONAL WEATHER SERVICE GREEN BAY WI
1200 PM CDT SAT OCT 25 2014

WIZ005-009-010>012-018-019-251800-
NORTH CENTRAL WISCONSIN

CITY           SKY/WX    TMP DP  RH WIND       PRES   REMARKS
IRONWOOD       SUNNY     52  32  46 W25G32    29.84F
MANITOWISH WTR SUNNY     54  32  43 NW18G25   29.87R
ARBOR VITAE    SUNNY     57  32  39 NW15G24   29.87R
EAGLE RIVER    SUNNY     55  26  33 NW22G31   29.84S
LAND O LAKES   SUNNY     55  26  33 NW12G28   29.83S
RHINELANDER    SUNNY     55  29  36 NW12G26   29.87R
PHILLIPS       SUNNY     54  31  42 NW9G20    29.91R
ANTIGO         SUNNY     56  33  41 NW21      29.86S
TOMAHAWK       SUNNY     56  29  35 W16G24    29.89S
MERRILL        SUNNY     59  31  34 NW18G28   29.88S
$$

WIZ013-073-251800-
NORTHEAST WISCONSIN

CITY           SKY/WX    TMP DP  RH WIND       PRES   REMARKS
IRON MOUNTAIN  SUNNY     58  30  34 NW23G35   29.76S
MARINETTE      SUNNY     61  32  33 NW9G22    29.77F
OCONTO         SUNNY     62  32  33 NW17G24   29.79F
$$

WIZ017-030-035>037-045-251800-
CENTRAL WISCONSIN

CITY           SKY/WX    TMP DP  RH WIND       PRES   REMARKS
MEDFORD        SUNNY     56  31  39 NW16      29.91F
WAUSAU         SUNNY     59  29  31 NW17G26   29.88S
MOSINEE        SUNNY     57  34  41 W21       29.91R
MARSHFIELD     SUNNY     59  36  42 NW21      29.92F
WISC RAPIDS    SUNNY     60  31  33 NW17G25   29.94S
STEVENS POINT  SUNNY     57  30  36 NW14G28   29.90F
WAUPACA        SUNNY     63  30  29 W16G24    29.89S
SHAWANO        SUNNY     62  31  31 NW20G26   29.84S
CLINTONVILLE   SUNNY     61  32  33 NW18G28   29.85S
$$

WIZ038-039-048-051-251800-
FOX VALLEY

CITY           SKY/WX    TMP DP  RH WIND       PRES   REMARKS
NWS GREEN BAY  SUNNY     62  34  35 W21G32    29.83F
APPLETON       SUNNY     61  32  33 NW18G25   29.87F
OSHKOSH        SUNNY     61  34  36 W17G26    29.88S
FOND DU LAC    SUNNY     63  34  33 W22G30    29.89F
$$

WIZ022-050-052-251800-
EAST CENTRAL WISCONSIN

CITY           SKY/WX    TMP DP  RH WIND       PRES   REMARKS
STURGEON BAY   SUNNY     61  37  41 W20       29.80S
MANITOWOC      SUNNY     62  37  39 W16G26    29.83F
SHEBOYGAN      SUNNY     62  36  37 NW21G32   29.86F
$$

LMZ563-521-522-541>543-251800-
LAKESHORE

STATION/POSITION TIME  TEMP    WIND        PRES    VSBY  WAVE
                       AIR SEA DIR/SP/G                  HT/PER
                 (UTC) (F)     (DEG/KT/KT) (MB)    (MI)  (FT/S)
SHEBOYGAN LKSHOR 1700   62 51  290/ 19/ 22 1011.1F
KEWAUNEE LKSHORE 1700   60     290/ 14/ 23 1008.6F
ALGOMA MARINA    1600          310/ 13/ 23   N/A
NORTHPORT PIER   1700   58     300/ 10/ 15 1007.5F
N MID LAKE BUOY  1700   54 51  280/ 14/ 17 1006.8F         3/ 4
SISTER BAY LKSHO 1600          300/ 17/ 22   N/A
CHAMBERS ISLAND  1700   61     260/  4/ 10 1008.1S
MENOMINEE LKSHOR 1700   61     270/ 12/ 17 1008.9S
$$



USA.gov is the U.S. government's official web portal to all federal, state and local government web resources and services.